Tracking 29933 objects as of 2-Dec-2024
HD Live streaming from Space Station
objects crossing your sky now

STARLINK-31428

Track STARLINK-31428 now!
10-day predictions
STARLINK-31428 is classified as:


NORAD ID: 59367
Int'l Code: 2024-060V
Perigee: 449.9 km
Apogee: 452.4 km
Inclination: 43.0 °
Period: 93.5 minutes
Semi major axis: 6822 km
RCS: Unknown
Launch date: March 31, 2024
Source: United States (US)
Launch site: AIR FORCE EASTERN TEST RANGE (AFETR)
Your satellite tracking list
Your tracking list is empty




NASA's NSSDC Master Catalog

Two Line Element Set (TLE):
1 59367U 24060V   24337.11930321  .00004378  00000-0  11198-3 0  9996
2 59367  43.0068   3.9007 0001843 262.5929  97.4719 15.40707255 39187
Source of the keplerian elements: AFSPC